Flight Track Log - Related Links

Times and Time Zones

All times are in EDT time to prevent confusion due to time zone crossing. See the EJA102 flight status page for this flight to view local times or setup timezone preferences in your user account.

Time Position Orientation Groundspeed Altitude Reporting Facility
EDT Latitude Longitude Course Direction KTS MPH feet Rate Location/Type
Wed 03:34:31 PM 43.9564 -69.0972 198° South 232 267 5,300  Level Boston Center
Wed 03:35:43 PM 43.8803 -69.1331 199° South 251 289 7,800 2,318 Climbing Boston Center
Wed 03:36:43 PM 43.8022 -69.1747 201° Southwest 279 321 10,400 2,250 Climbing Boston Center
Wed 03:37:43 PM 43.7178 -69.2139 199° South 308 354 12,300 1,700 Climbing Boston Center
Wed 03:38:43 PM 43.6275 -69.2589 200° South 333 383 13,800 850 Climbing Boston Center
Wed 03:39:43 PM 43.5286 -69.3069 199° South 360 414 14,000 91 Climbing Boston Center
Wed 03:40:55 PM 43.4258 -69.3608 201° Southwest 393 452 14,000  Level Boston Center
Wed 03:41:55 PM 43.3044 -69.4186 199° South 393 452 14,000  Level Boston Center
Wed 03:42:55 PM 43.2036 -69.4661 199° South 393 452 14,000  Level Boston Center
Wed 03:43:55 PM 43.1047 -69.5164 200° South 388 447 14,000  Level Boston Center
Wed 03:44:55 PM 43.0081 -69.5636 200° South 382 440 14,000  Level Boston Center
Wed 03:45:55 PM 42.9133 -69.6106 200° South 376 433 14,000  Level Boston Center
Wed 03:46:55 PM 42.8167 -69.6575 200° South 376 433 14,000  Level Boston Center
Wed 03:47:55 PM 42.7197 -69.7044 200° South 371 427 14,000  Level Boston Center
Wed 03:48:55 PM 42.6250 -69.7508 200° South 371 427 14,000  Level Boston Center
Wed 03:49:55 PM 42.5258 -69.7975 199° South 371 427 14,000  Level Boston Center
Wed 03:50:55 PM 42.4311 -69.8436 200° South 366 421 14,000  Level Boston Center
Wed 03:51:55 PM 42.3342 -69.8897 199° South 366 421 14,000  Level Boston Center
Wed 03:52:55 PM 42.2331 -69.9389 200° South 376 433 14,000 -450 Level Boston Center
Wed 03:53:55 PM 42.1361 -69.9847 199° South 381 438 13,100 -1,150 Descending Boston Center
Wed 03:54:55 PM 42.0289 -70.0336 199° South 381 438 11,700 -2,000 Descending Boston Center
Wed 03:55:55 PM 41.9569 -70.0811 206° Southwest 351 404 9,100 -3,000 Descending Boston Center
Wed 03:56:55 PM 41.8953 -70.1225 207° Southwest 296 341 5,700 -3,050 Descending Boston Center
Wed 03:57:55 PM 41.8272 -70.1556 200° South 273 314 3,000 -1,350 Descending Boston Center
Wed 03:58:55 PM 41.7611 -70.1858 199° South 266 306 3,000 -700 Level Boston Center
Wed 03:59:55 PM 41.7114 -70.2097 200° South 235 270 1,600 -1,150 Descending Boston Center
Wed 04:00:55 PM 41.6872 -70.2494 231° Southwest 167 192 700 4,700 Descending Boston Center
Wed 04:01:55 PM 41.6692 -70.2806 232° Southwest 138 159 11,000 -300 Climbing Boston Center
Wed 04:02:55 PM 41.6631 -70.2864 215° Southwest 94 108 100  Descending Boston Center
Wed 04:03:55 PM 41.6628 -70.2836 98° East 61 70 11,000 5,450 Climbing Boston Center
Wed 04:04:55 PM 41.6467 -70.3092 230° Southwest 61 70 11,000  Level Boston Center
Wed 04:05:55 PM 41.6367 -70.3233 227° Southwest 61 70 11,000  Level Boston Center
Wed 04:06:55 PM 41.6264 -70.3378 226° Southwest 61 70 11,000  Level Boston Center
Wed 04:08:00 PM 41.6667 -70.2667 37° Northeast  Level FlightAware Approximate
Wed 04:15:00 PM 41.6693 -70.2804 37° Northeast  Level Estimated
Wed 04:16:00 PM 41.6693 -70.2804 37° Northeast  Level Estimated
Wed 04:17:00 PM 41.6693 -70.2804 37° Northeast  Level Estimated

Login

Don't have an account? Register now (free) for customized features, flight alerts, and more!